Time,TemperatureF,DewpointF,PressureIn,WindDirection,WindDirectionDegrees,WindSpeedMPH,WindSpeedGustMPH,Humidity,HourlyPrecipIn,Conditions,Clouds,dailyrainin,SolarRadiationWatts/m^2,SoftwareType,DateUTC
2013-04-03 00:00:00,32.2,12.7,30.22,WNW,290,2.0,2.0,44,0.00,,,0.00,0,Wunderground v.1.15,2013-04-03 04:00:00,
2013-04-03 00:02:00,32.2,12.7,30.22,WNW,293,2.0,2.0,44,0.00,,,0.00,0,Wunderground v.1.15,2013-04-03 04:02:00,
2013-04-03 00:03:00,32.1,12.6,30.22,WNW,293,2.0,2.0,44,0.00,,,0.00,0,Wunderground v.1.15,2013-04-03 04:03:00,
2013-04-03 00:08:00,32.2,12.7,30.22,WNW,292,2.0,3.0,44,0.00,,,0.00,0,Wunderground v.1.15,2013-04-03 04:08:00,
2013-04-03 00:14:00,32.2,12.7,30.22,West,278,2.0,2.0,44,0.00,,,0.00,0,Wunderground v.1.15,2013-04-03 04:14:00,
2013-04-03 00:20:00,32.3,12.3,30.22,West,271,1.0,1.0,43,0.00,,,0.00,0,Wunderground v.1.15,2013-04-03 04:20:00,
2013-04-03 00:26:00,32.4,12.4,30.22,West,270,2.0,4.0,43,0.00,,,0.00,0,Wunderground v.1.15,2013-04-03 04:26:00,
2013-04-03 00:32:00,32.5,12.5,30.22,West,269,1.0,2.0,43,0.00,,,0.00,0,Wunderground v.1.15,2013-04-03 04:32:00,
2013-04-03 00:37:00,32.3,12.3,30.22,WNW,294,2.0,3.0,43,0.00,,,0.00,0,Wunderground v.1.15,2013-04-03 04:37:00,
2013-04-03 00:43:00,32.2,12.2,30.22,WNW,299,2.0,4.0,43,0.00,,,0.00,0,Wunderground v.1.15,2013-04-03 04:43:00,
2013-04-03 00:49:00,32.1,12.1,30.22,WNW,285,2.0,4.0,43,0.00,,,0.00,0,Wunderground v.1.15,2013-04-03 04:49:00,
2013-04-03 00:55:00,32.0,12.0,30.22,WNW,297,2.0,3.0,43,0.00,,,0.00,0,Wunderground v.1.15,2013-04-03 04:55:00,
2013-04-03 01:00:00,31.9,11.9,30.22,WNW,288,2.0,2.0,43,0.00,,,0.00,0,Wunderground v.1.15,2013-04-03 05:00:00,
2013-04-03 01:06:00,31.9,11.9,30.22,WNW,297,2.0,4.0,43,0.00,,,0.00,0,Wunderground v.1.15,2013-04-03 05:06:00,
2013-04-03 01:12:00,32.0,12.0,30.22,WNW,294,2.0,2.0,43,0.00,,,0.00,0,Wunderground v.1.15,2013-04-03 05:12:00,
2013-04-03 01:18:00,31.9,11.9,30.22,WNW,294,1.0,2.0,43,0.00,,,0.00,0,Wunderground v.1.15,2013-04-03 05:18:00,
2013-04-03 01:23:00,31.8,11.8,30.22,WNW,283,1.0,5.0,43,0.00,,,0.00,0,Wunderground v.1.15,2013-04-03 05:23:00,
2013-04-03 01:29:00,31.7,12.2,30.22,WNW,301,3.0,5.0,44,0.00,,,0.00,0,Wunderground v.1.15,2013-04-03 05:29:00,
2013-04-03 01:35:00,31.5,12.1,30.22,WNW,289,3.0,5.0,44,0.00,,,0.00,0,Wunderground v.1.15,2013-04-03 05:35:00,
2013-04-03 01:40:00,31.5,12.1,30.22,WNW,299,4.0,4.0,44,0.00,,,0.00,0,Wunderground v.1.15,2013-04-03 05:40:00,
2013-04-03 01:46:00,31.5,12.1,30.22,WNW,284,4.0,6.0,44,0.00,,,0.00,0,Wunderground v.1.15,2013-04-03 05:46:00,
2013-04-03 01:52:00,31.4,12.0,30.22,West,279,4.0,5.0,44,0.00,,,0.00,0,Wunderground v.1.15,2013-04-03 05:52:00,
2013-04-03 01:57:00,31.4,12.5,30.22,WNW,290,3.0,5.0,45,0.00,,,0.00,0,Wunderground v.1.15,2013-04-03 05:57:00,
2013-04-03 02:03:00,31.2,12.8,30.22,WNW,302,2.0,3.0,46,0.00,,,0.00,0,Wunderground v.1.15,2013-04-03 06:03:00,
2013-04-03 02:08:00,31.0,13.1,30.21,NW,306,2.0,5.0,47,0.00,,,0.00,0,Wunderground v.1.15,2013-04-03 06:08:00,
2013-04-03 02:14:00,30.8,12.9,30.21,West,281,4.0,5.0,47,0.00,,,0.00,0,Wunderground v.1.15,2013-04-03 06:14:00,
2013-04-03 02:20:00,30.9,13.0,30.21,West,274,4.0,4.0,47,0.00,,,0.00,0,Wunderground v.1.15,2013-04-03 06:20:00,
2013-04-03 02:25:00,31.0,12.6,30.21,WNW,301,4.0,5.0,46,0.00,,,0.00,0,Wunderground v.1.15,2013-04-03 06:25:00,
2013-04-03 02:31:00,31.1,13.2,30.21,WNW,285,3.0,4.0,47,0.00,,,0.00,0,Wunderground v.1.15,2013-04-03 06:31:00,
2013-04-03 02:37:00,31.1,13.2,30.21,WNW,298,4.0,7.0,47,0.00,,,0.00,0,Wunderground v.1.15,2013-04-03 06:37:00,
2013-04-03 02:43:00,31.1,13.2,30.21,WNW,286,4.0,5.0,47,0.00,,,0.00,0,Wunderground v.1.15,2013-04-03 06:43:00,
2013-04-03 02:49:00,31.0,13.1,30.21,WNW,297,4.0,5.0,47,0.00,,,0.00,0,Wunderground v.1.15,2013-04-03 06:49:00,
2013-04-03 02:54:00,31.0,13.1,30.21,West,281,3.0,5.0,47,0.00,,,0.00,0,Wunderground v.1.15,2013-04-03 06:54:00,
2013-04-03 03:00:00,30.8,13.4,30.21,WNW,283,3.0,4.0,48,0.00,,,0.00,0,Wunderground v.1.15,2013-04-03 07:00:00,
2013-04-03 03:06:00,30.7,13.3,30.21,WNW,284,3.0,5.0,48,0.00,,,0.00,0,Wunderground v.1.15,2013-04-03 07:06:00,
2013-04-03 03:12:00,30.6,13.2,30.21,WNW,300,3.0,5.0,48,0.00,,,0.00,0,Wunderground v.1.15,2013-04-03 07:12:00,
2013-04-03 03:17:00,30.7,13.3,30.21,WNW,288,4.0,7.0,48,0.00,,,0.00,0,Wunderground v.1.15,2013-04-03 07:17:00,
2013-04-03 03:23:00,30.6,13.2,30.20,WNW,290,5.0,6.0,48,0.00,,,0.00,0,Wunderground v.1.15,2013-04-03 07:23:00,
2013-04-03 03:29:00,30.5,13.1,30.20,West,275,5.0,6.0,48,0.00,,,0.00,0,Wunderground v.1.15,2013-04-03 07:29:00,
2013-04-03 03:35:00,30.4,13.5,30.20,NW,326,5.0,7.0,49,0.00,,,0.00,0,Wunderground v.1.15,2013-04-03 07:35:00,
2013-04-03 03:41:00,30.3,13.4,30.21,WNW,293,5.0,6.0,49,0.00,,,0.00,0,Wunderground v.1.15,2013-04-03 07:41:00,
2013-04-03 03:47:00,30.3,13.4,30.21,WNW,286,5.0,6.0,49,0.00,,,0.00,0,Wunderground v.1.15,2013-04-03 07:47:00,
2013-04-03 03:53:00,30.3,13.4,30.21,NW,321,5.0,5.0,49,0.00,,,0.00,0,Wunderground v.1.15,2013-04-03 07:53:00,
2013-04-03 03:59:00,30.3,13.9,30.21,NNW,330,5.0,7.0,50,0.00,,,0.00,0,Wunderground v.1.15,2013-04-03 07:59:00,
2013-04-03 04:05:00,30.4,14.0,30.21,WNW,300,6.0,7.0,50,0.00,,,0.00,0,Wunderground v.1.15,2013-04-03 08:05:00,
2013-04-03 04:10:00,30.3,13.9,30.21,NW,320,5.0,5.0,50,0.00,,,0.00,0,Wunderground v.1.15,2013-04-03 08:10:00,
2013-04-03 04:15:00,30.0,14.0,30.22,West,281,4.0,5.0,51,0.00,,,0.00,0,Wunderground v.1.15,2013-04-03 08:15:00,
2013-04-03 04:21:00,30.1,14.1,30.22,WNW,285,3.0,6.0,51,0.00,,,0.00,0,Wunderground v.1.15,2013-04-03 08:21:00,
2013-04-03 04:26:00,30.3,14.3,30.22,WNW,294,4.0,6.0,51,0.00,,,0.00,0,Wunderground v.1.15,2013-04-03 08:26:00,
2013-04-03 04:31:00,30.2,14.2,30.22,WNW,286,4.0,4.0,51,0.00,,,0.00,0,Wunderground v.1.15,2013-04-03 08:31:00,
2013-04-03 04:37:00,30.1,14.6,30.22,WNW,288,4.0,4.0,52,0.00,,,0.00,0,Wunderground v.1.15,2013-04-03 08:37:00,
2013-04-03 04:42:00,30.1,14.6,30.23,WNW,288,3.0,5.0,52,0.00,,,0.00,0,Wunderground v.1.15,2013-04-03 08:42:00,
2013-04-03 04:48:00,30.1,14.1,30.23,WNW,294,4.0,6.0,51,0.00,,,0.00,0,Wunderground v.1.15,2013-04-03 08:48:00,
2013-04-03 04:54:00,30.2,14.2,30.23,WNW,301,4.0,6.0,51,0.00,,,0.00,0,Wunderground v.1.15,2013-04-03 08:54:00,
2013-04-03 05:00:00,30.1,14.1,30.23,WNW,302,4.0,4.0,51,0.00,,,0.00,0,Wunderground v.1.15,2013-04-03 09:00:00,
2013-04-03 05:05:00,30.2,14.7,30.23,WNW,283,4.0,6.0,52,0.00,,,0.00,0,Wunderground v.1.15,2013-04-03 09:05:00,
2013-04-03 05:11:00,30.3,14.8,30.23,NW,316,3.0,5.0,52,0.00,,,0.00,0,Wunderground v.1.15,2013-04-03 09:11:00,
2013-04-03 05:16:00,30.3,14.8,30.24,WNW,300,4.0,5.0,52,0.00,,,0.00,0,Wunderground v.1.15,2013-04-03 09:16:00,
2013-04-03 05:22:00,30.3,14.8,30.24,WNW,296,4.0,5.0,52,0.00,,,0.00,0,Wunderground v.1.15,2013-04-03 09:22:00,
2013-04-03 05:28:00,30.3,14.8,30.24,West,281,4.0,6.0,52,0.00,,,0.00,0,Wunderground v.1.15,2013-04-03 09:28:00,
2013-04-03 05:34:00,30.4,15.3,30.24,WNW,290,4.0,5.0,53,0.00,,,0.00,0,Wunderground v.1.15,2013-04-03 09:34:00,
2013-04-03 05:40:00,30.4,15.3,30.24,NW,307,4.0,4.0,53,0.00,,,0.00,0,Wunderground v.1.15,2013-04-03 09:40:00,
2013-04-03 05:45:00,30.4,15.3,30.25,WNW,292,3.0,5.0,53,0.00,,,0.00,0,Wunderground v.1.15,2013-04-03 09:45:00,
2013-04-03 05:50:00,30.4,15.3,30.25,WNW,301,4.0,4.0,53,0.00,,,0.00,0,Wunderground v.1.15,2013-04-03 09:50:00,
2013-04-03 05:57:00,30.2,15.1,30.25,WNW,299,4.0,6.0,53,0.00,,,0.00,0,Wunderground v.1.15,2013-04-03 09:57:00,
2013-04-03 06:02:00,30.2,15.5,30.25,NW,319,4.0,5.0,54,0.00,,,0.00,0,Wunderground v.1.15,2013-04-03 10:02:00,
2013-04-03 06:07:00,30.3,16.0,30.25,NW,313,4.0,5.0,55,0.00,,,0.00,0,Wunderground v.1.15,2013-04-03 10:07:00,
2013-04-03 06:13:00,30.2,15.5,30.25,WNW,289,4.0,6.0,54,0.00,,,0.00,0,Wunderground v.1.15,2013-04-03 10:13:00,
2013-04-03 06:19:00,30.2,15.5,30.25,WNW,292,3.0,6.0,54,0.00,,,0.00,0,Wunderground v.1.15,2013-04-03 10:19:00,
2013-04-03 06:25:00,30.0,15.8,30.25,WNW,300,3.0,4.0,55,0.00,,,0.00,0,Wunderground v.1.15,2013-04-03 10:25:00,
2013-04-03 06:31:00,29.8,16.0,30.25,WNW,300,3.0,3.0,56,0.00,,,0.00,0,Wunderground v.1.15,2013-04-03 10:31:00,
2013-04-03 06:37:00,29.8,16.0,30.25,WNW,294,2.0,4.0,56,0.00,,,0.00,0,Wunderground v.1.15,2013-04-03 10:37:00,
2013-04-03 06:43:00,29.7,15.9,30.26,WNW,295,2.0,4.0,56,0.00,,,0.00,0,Wunderground v.1.15,2013-04-03 10:43:00,
2013-04-03 06:48:00,29.6,15.8,30.26,WNW,293,2.0,4.0,56,0.00,,,0.00,7,Wunderground v.1.15,2013-04-03 10:48:00,
2013-04-03 06:54:00,29.5,16.1,30.26,WNW,287,2.0,4.0,57,0.00,,,0.00,11,Wunderground v.1.15,2013-04-03 10:54:00,
2013-04-03 07:00:00,29.3,15.9,30.26,West,279,1.0,4.0,57,0.00,,,0.00,14,Wunderground v.1.15,2013-04-03 11:00:00,
2013-04-03 07:06:00,29.2,15.8,30.27,WNW,297,2.0,4.0,57,0.00,,,0.00,18,Wunderground v.1.15,2013-04-03 11:06:00,
2013-04-03 07:12:00,29.2,16.2,30.27,WNW,296,2.0,3.0,58,0.00,,,0.00,23,Wunderground v.1.15,2013-04-03 11:12:00,
2013-04-03 07:17:00,29.1,16.5,30.27,WNW,298,2.0,3.0,59,0.00,,,0.00,26,Wunderground v.1.15,2013-04-03 11:17:00,
2013-04-03 07:24:00,29.2,16.6,30.27,WNW,296,2.0,5.0,59,0.00,,,0.00,32,Wunderground v.1.15,2013-04-03 11:24:00,
2013-04-03 07:30:00,29.4,16.8,30.28,WNW,286,3.0,5.0,59,0.00,,,0.00,33,Wunderground v.1.15,2013-04-03 11:30:00,
2013-04-03 07:36:00,29.6,17.0,30.27,WNW,288,4.0,6.0,59,0.00,,,0.00,37,Wunderground v.1.15,2013-04-03 11:36:00,
2013-04-03 07:42:00,29.8,17.2,30.28,WNW,296,3.0,5.0,59,0.00,,,0.00,40,Wunderground v.1.15,2013-04-03 11:42:00,
2013-04-03 07:47:00,29.9,17.3,30.28,WNW,286,4.0,6.0,59,0.00,,,0.00,42,Wunderground v.1.15,2013-04-03 11:47:00,
2013-04-03 07:53:00,30.0,17.4,30.28,WNW,290,4.0,6.0,59,0.00,,,0.00,46,Wunderground v.1.15,2013-04-03 11:53:00,
2013-04-03 07:59:00,30.3,17.7,30.28,WNW,294,3.0,6.0,59,0.00,,,0.00,91,Wunderground v.1.15,2013-04-03 11:59:00,
2013-04-03 08:05:00,30.7,18.1,30.28,WNW,288,3.0,5.0,59,0.00,,,0.00,53,Wunderground v.1.15,2013-04-03 12:05:00,
2013-04-03 08:10:00,31.0,17.9,30.28,WNW,284,4.0,7.0,58,0.00,,,0.00,83,Wunderground v.1.15,2013-04-03 12:10:00,
2013-04-03 08:15:00,31.1,17.6,30.28,West,262,5.0,7.0,57,0.00,,,0.00,69,Wunderground v.1.15,2013-04-03 12:15:00,
2013-04-03 08:22:00,31.2,17.7,30.28,West,260,6.0,7.0,57,0.00,,,0.00,74,Wunderground v.1.15,2013-04-03 12:22:00,
2013-04-03 08:28:00,31.4,18.3,30.28,West,278,6.0,7.0,58,0.00,,,0.00,72,Wunderground v.1.15,2013-04-03 12:28:00,
2013-04-03 08:34:00,31.6,18.1,30.28,WNW,292,6.0,11.0,57,0.00,,,0.00,67,Wunderground v.1.15,2013-04-03 12:34:00,
2013-04-03 08:40:00,31.7,18.2,30.28,WNW,289,6.0,8.0,57,0.00,,,0.00,155,Wunderground v.1.15,2013-04-03 12:40:00,
2013-04-03 08:45:00,31.6,18.1,30.28,WNW,291,6.0,8.0,57,0.00,,,0.00,76,Wunderground v.1.15,2013-04-03 12:45:00,
2013-04-03 08:51:00,31.8,18.3,30.28,NW,323,6.0,9.0,57,0.00,,,0.00,144,Wunderground v.1.15,2013-04-03 12:51:00,
2013-04-03 08:57:00,32.3,18.3,30.28,NNW,340,7.0,9.0,56,0.00,,,0.00,304,Wunderground v.1.15,2013-04-03 12:57:00,
2013-04-03 09:02:00,32.4,18.0,30.28,NNW,331,6.0,9.0,55,0.00,,,0.00,109,Wunderground v.1.15,2013-04-03 13:02:00,
2013-04-03 09:08:00,32.4,18.4,30.28,NNW,342,7.0,15.0,56,0.00,,,0.00,504,Wunderground v.1.15,2013-04-03 13:08:00,
2013-04-03 09:14:00,32.7,18.3,30.28,NW,319,7.0,8.0,55,0.00,,,0.00,172,Wunderground v.1.15,2013-04-03 13:14:00,
2013-04-03 09:20:00,32.5,18.5,30.28,NW,324,7.0,8.0,56,0.00,,,0.00,199,Wunderground v.1.15,2013-04-03 13:20:00,
2013-04-03 09:26:00,32.5,17.7,30.28,WNW,296,8.0,11.0,54,0.00,,,0.00,218,Wunderground v.1.15,2013-04-03 13:26:00,
2013-04-03 09:32:00,32.4,18.0,30.27,WNW,296,8.0,8.0,55,0.00,,,0.00,260,Wunderground v.1.15,2013-04-03 13:32:00,
2013-04-03 09:38:00,32.6,18.2,30.27,West,276,7.0,10.0,55,0.00,,,0.00,236,Wunderground v.1.15,2013-04-03 13:38:00,
2013-04-03 09:43:00,32.8,17.5,30.27,NW,317,8.0,9.0,53,0.00,,,0.00,178,Wunderground v.1.15,2013-04-03 13:43:00,
2013-04-03 09:49:00,32.6,16.9,30.27,WNW,294,10.0,15.0,52,0.00,,,0.00,174,Wunderground v.1.15,2013-04-03 13:49:00,
2013-04-03 09:55:00,33.0,16.4,30.27,WNW,297,10.0,13.0,50,0.00,,,0.00,183,Wunderground v.1.15,2013-04-03 13:55:00,
2013-04-03 10:00:00,33.7,17.5,30.28,NW,313,8.0,8.0,51,0.00,,,0.00,680,Wunderground v.1.15,2013-04-03 14:00:00,
2013-04-03 10:06:00,34.4,17.7,30.28,NW,311,7.0,10.0,50,0.00,,,0.00,668,Wunderground v.1.15,2013-04-03 14:06:00,
2013-04-03 10:11:00,34.4,16.2,30.28,NW,311,8.0,15.0,47,0.00,,,0.00,680,Wunderground v.1.15,2013-04-03 14:11:00,
2013-04-03 10:18:00,34.3,16.6,30.28,NNW,340,10.0,15.0,48,0.00,,,0.00,211,Wunderground v.1.15,2013-04-03 14:18:00,
2013-04-03 10:24:00,34.3,16.6,30.28,NW,304,7.0,9.0,48,0.00,,,0.00,782,Wunderground v.1.15,2013-04-03 14:24:00,
2013-04-03 10:29:00,34.9,17.2,30.28,NNW,336,5.0,11.0,48,0.00,,,0.00,810,Wunderground v.1.15,2013-04-03 14:29:00,
2013-04-03 10:35:00,34.8,18.0,30.28,NW,316,6.0,8.0,50,0.00,,,0.00,202,Wunderground v.1.15,2013-04-03 14:35:00,
2013-04-03 10:41:00,34.2,16.0,30.28,North,5,8.0,14.0,47,0.00,,,0.00,225,Wunderground v.1.15,2013-04-03 14:41:00,
2013-04-03 10:47:00,34.8,16.1,30.28,WNW,292,9.0,14.0,46,0.00,,,0.00,796,Wunderground v.1.15,2013-04-03 14:47:00,
2013-04-03 10:52:00,35.4,17.6,30.28,WNW,286,9.0,9.0,48,0.00,,,0.00,299,Wunderground v.1.15,2013-04-03 14:52:00,
2013-04-03 10:58:00,35.4,17.1,30.29,West,268,8.0,10.0,47,0.00,,,0.00,283,Wunderground v.1.15,2013-04-03 14:58:00,
2013-04-03 11:04:00,34.7,17.0,30.29,NW,305,7.0,9.0,48,0.00,,,0.00,320,Wunderground v.1.15,2013-04-03 15:04:00,
2013-04-03 11:10:00,34.9,17.2,30.29,West,275,7.0,7.0,48,0.00,,,0.00,244,Wunderground v.1.15,2013-04-03 15:10:00,
2013-04-03 11:15:00,35.4,17.1,30.29,WNW,298,6.0,12.0,47,0.00,,,0.00,914,Wunderground v.1.15,2013-04-03 15:15:00,
2013-04-03 11:21:00,35.7,16.4,30.30,West,267,6.0,7.0,45,0.00,,,0.00,285,Wunderground v.1.15,2013-04-03 15:21:00,
2013-04-03 11:26:00,35.6,16.8,30.29,West,264,6.0,8.0,46,0.00,,,0.00,274,Wunderground v.1.15,2013-04-03 15:26:00,
2013-04-03 11:32:00,36.4,17.1,30.29,WSW,256,6.0,6.0,45,0.00,,,0.00,831,Wunderground v.1.15,2013-04-03 15:32:00,
2013-04-03 11:38:00,37.0,16.0,30.30,WNW,296,7.0,11.0,42,0.00,,,0.00,424,Wunderground v.1.15,2013-04-03 15:38:00,
2013-04-03 11:44:00,37.3,15.7,30.29,NW,306,7.0,9.0,41,0.00,,,0.00,881,Wunderground v.1.15,2013-04-03 15:44:00,
2013-04-03 11:50:00,37.7,16.1,30.28,WNW,288,6.0,6.0,41,0.00,,,0.00,930,Wunderground v.1.15,2013-04-03 15:50:00,
2013-04-03 11:55:00,37.2,15.6,30.28,ESE,105,5.0,6.0,41,0.00,,,0.00,874,Wunderground v.1.15,2013-04-03 15:55:00,
2013-04-03 12:01:00,37.8,17.3,30.28,WSW,255,4.0,8.0,43,0.00,,,0.00,911,Wunderground v.1.15,2013-04-03 16:01:00,
2013-04-03 12:07:00,38.3,15.5,30.29,West,275,7.0,11.0,39,0.00,,,0.00,998,Wunderground v.1.15,2013-04-03 16:07:00,
2013-04-03 12:12:00,38.3,16.1,30.29,WNW,285,7.0,9.0,40,0.00,,,0.00,940,Wunderground v.1.15,2013-04-03 16:12:00,
2013-04-03 12:17:00,38.6,15.1,30.29,NW,322,7.0,16.0,38,0.00,,,0.00,1028,Wunderground v.1.15,2013-04-03 16:17:00,
2013-04-03 12:22:00,38.6,16.3,30.29,WSW,252,8.0,10.0,40,0.00,,,0.00,912,Wunderground v.1.15,2013-04-03 16:22:00,
2013-04-03 12:28:00,39.1,15.6,30.29,West,278,7.0,10.0,38,0.00,,,0.00,1028,Wunderground v.1.15,2013-04-03 16:28:00,
2013-04-03 12:34:00,39.2,15.7,30.29,NNW,337,6.0,9.0,38,0.00,,,0.00,830,Wunderground v.1.15,2013-04-03 16:34:00,
2013-04-03 12:40:00,38.9,15.4,30.28,West,281,7.0,7.0,38,0.00,,,0.00,264,Wunderground v.1.15,2013-04-03 16:40:00,
2013-04-03 12:46:00,39.0,14.9,30.28,West,262,6.0,10.0,37,0.00,,,0.00,350,Wunderground v.1.15,2013-04-03 16:46:00,
2013-04-03 12:51:00,40.1,15.2,30.28,West,261,7.0,9.0,36,0.00,,,0.00,998,Wunderground v.1.15,2013-04-03 16:51:00,
2013-04-03 12:57:00,39.8,14.3,30.28,NNW,330,8.0,9.0,35,0.00,,,0.00,265,Wunderground v.1.15,2013-04-03 16:57:00,
2013-04-03 13:02:00,39.6,14.8,30.28,WNW,296,8.0,10.0,36,0.00,,,0.00,997,Wunderground v.1.15,2013-04-03 17:02:00,
2013-04-03 13:07:00,39.8,15.0,30.28,NW,311,9.0,10.0,36,0.00,,,0.00,236,Wunderground v.1.15,2013-04-03 17:07:00,
2013-04-03 13:12:00,39.9,14.4,30.27,NNW,344,8.0,14.0,35,0.00,,,0.00,239,Wunderground v.1.15,2013-04-03 17:12:00,
2013-04-03 13:17:00,39.7,14.2,30.28,West,277,8.0,14.0,35,0.00,,,0.00,438,Wunderground v.1.15,2013-04-03 17:17:00,
2013-04-03 13:23:00,39.7,14.2,30.28,West,259,7.0,19.0,35,0.00,,,0.00,592,Wunderground v.1.15,2013-04-03 17:23:00,
2013-04-03 13:29:00,40.4,14.9,30.27,NNW,335,8.0,19.0,35,0.00,,,0.00,1041,Wunderground v.1.15,2013-04-03 17:29:00,
2013-04-03 13:35:00,40.6,15.7,30.27,WNW,294,8.0,13.0,36,0.00,,,0.00,327,Wunderground v.1.15,2013-04-03 17:35:00,
2013-04-03 13:42:00,40.4,14.2,30.27,WNW,300,9.0,9.0,34,0.00,,,0.00,364,Wunderground v.1.15,2013-04-03 17:42:00,
2013-04-03 13:48:00,40.7,13.8,30.27,NNW,332,8.0,11.0,33,0.00,,,0.00,364,Wunderground v.1.15,2013-04-03 17:48:00,
2013-04-03 13:54:00,41.4,13.0,30.26,NW,323,9.0,9.0,31,0.00,,,0.00,355,Wunderground v.1.15,2013-04-03 17:54:00,
2013-04-03 13:59:00,41.6,13.2,30.27,WNW,298,8.0,12.0,31,0.00,,,0.00,457,Wunderground v.1.15,2013-04-03 17:59:00,
2013-04-03 14:05:00,41.5,13.1,30.27,NW,306,9.0,16.0,31,0.00,,,0.00,385,Wunderground v.1.15,2013-04-03 18:05:00,
2013-04-03 14:09:00,41.0,13.4,30.26,NW,306,10.0,10.0,32,0.00,,,0.00,352,Wunderground v.1.15,2013-04-03 18:09:00,
2013-04-03 14:16:00,41.0,12.6,30.26,WSW,241,9.0,12.0,31,0.00,,,0.00,448,Wunderground v.1.15,2013-04-03 18:16:00,
2013-04-03 14:22:00,41.3,13.6,30.26,NW,319,9.0,9.0,32,0.00,,,0.00,1114,Wunderground v.1.15,2013-04-03 18:22:00,
2013-04-03 14:27:00,42.1,12.8,30.26,West,265,10.0,14.0,30,0.00,,,0.00,325,Wunderground v.1.15,2013-04-03 18:27:00,
2013-04-03 14:33:00,41.2,11.3,30.26,WNW,294,9.0,12.0,29,0.00,,,0.00,309,Wunderground v.1.15,2013-04-03 18:33:00,
2013-04-03 14:38:00,41.3,12.1,30.26,NW,312,9.0,14.0,30,0.00,,,0.00,390,Wunderground v.1.15,2013-04-03 18:38:00,
2013-04-03 14:44:00,41.9,11.9,30.26,WNW,297,9.0,13.0,29,0.00,,,0.00,719,Wunderground v.1.15,2013-04-03 18:44:00,
2013-04-03 14:49:00,41.1,12.0,30.26,WNW,298,9.0,10.0,30,0.00,,,0.00,265,Wunderground v.1.15,2013-04-03 18:49:00,
2013-04-03 14:54:00,41.0,11.9,30.26,West,271,9.0,14.0,30,0.00,,,0.00,236,Wunderground v.1.15,2013-04-03 18:54:00,
2013-04-03 15:01:00,41.0,12.6,30.27,NNW,341,10.0,10.0,31,0.00,,,0.00,246,Wunderground v.1.15,2013-04-03 19:01:00,
2013-04-03 15:07:00,41.1,12.7,30.27,NW,316,9.0,13.0,31,0.00,,,0.00,195,Wunderground v.1.15,2013-04-03 19:07:00,
2013-04-03 15:12:00,40.9,12.5,30.27,WNW,302,9.0,12.0,31,0.00,,,0.00,229,Wunderground v.1.15,2013-04-03 19:12:00,
2013-04-03 15:18:00,40.6,12.3,30.28,North,5,10.0,13.0,31,0.00,,,0.00,281,Wunderground v.1.15,2013-04-03 19:18:00,
2013-04-03 15:22:00,40.6,11.5,30.28,NNW,334,11.0,15.0,30,0.00,,,0.00,183,Wunderground v.1.15,2013-04-03 19:22:00,
2013-04-03 15:29:00,40.6,12.3,30.28,NNW,329,10.0,15.0,31,0.00,,,0.00,232,Wunderground v.1.15,2013-04-03 19:29:00,
2013-04-03 15:34:00,40.2,11.2,30.28,NW,318,10.0,13.0,30,0.00,,,0.00,158,Wunderground v.1.15,2013-04-03 19:34:00,
2013-04-03 15:39:00,40.3,12.0,30.28,NW,304,10.0,19.0,31,0.00,,,0.00,200,Wunderground v.1.15,2013-04-03 19:39:00,
2013-04-03 15:45:00,40.4,11.4,30.28,WSW,251,10.0,14.0,30,0.00,,,0.00,204,Wunderground v.1.15,2013-04-03 19:45:00,
2013-04-03 15:50:00,40.4,10.6,30.29,WNW,296,11.0,11.0,29,0.00,,,0.00,221,Wunderground v.1.15,2013-04-03 19:50:00,
2013-04-03 15:56:00,41.0,11.1,30.29,NW,325,11.0,12.0,29,0.00,,,0.00,816,Wunderground v.1.15,2013-04-03 19:56:00,
2013-04-03 16:02:00,42.7,12.6,30.29,NW,322,8.0,10.0,29,0.00,,,0.00,800,Wunderground v.1.15,2013-04-03 20:02:00,
2013-04-03 16:07:00,41.8,11.0,30.29,WNW,285,9.0,19.0,28,0.00,,,0.00,214,Wunderground v.1.15,2013-04-03 20:07:00,
2013-04-03 16:12:00,41.4,12.2,30.29,WNW,284,10.0,13.0,30,0.00,,,0.00,121,Wunderground v.1.15,2013-04-03 20:12:00,
2013-04-03 16:18:00,40.4,11.4,30.29,WNW,294,11.0,15.0,30,0.00,,,0.00,610,Wunderground v.1.15,2013-04-03 20:18:00,
2013-04-03 16:24:00,40.4,11.4,30.30,WNW,290,11.0,15.0,30,0.00,,,0.00,171,Wunderground v.1.15,2013-04-03 20:24:00,
2013-04-03 16:29:00,40.3,12.0,30.30,WSW,258,9.0,9.0,31,0.00,,,0.00,183,Wunderground v.1.15,2013-04-03 20:29:00,
2013-04-03 16:34:00,39.8,12.3,30.30,West,275,9.0,12.0,32,0.00,,,0.00,105,Wunderground v.1.15,2013-04-03 20:34:00,
2013-04-03 16:40:00,39.6,11.4,30.30,NW,306,10.0,10.0,31,0.00,,,0.00,95,Wunderground v.1.15,2013-04-03 20:40:00,
2013-04-03 16:45:00,39.5,12.0,30.31,West,273,10.0,15.0,32,0.00,,,0.00,148,Wunderground v.1.15,2013-04-03 20:45:00,
2013-04-03 16:51:00,39.7,12.2,30.31,WNW,284,9.0,11.0,32,0.00,,,0.00,223,Wunderground v.1.15,2013-04-03 20:51:00,
2013-04-03 16:56:00,39.8,12.3,30.31,NNW,338,10.0,13.0,32,0.00,,,0.00,109,Wunderground v.1.15,2013-04-03 20:56:00,
2013-04-03 17:01:00,39.5,12.0,30.31,NNW,332,10.0,10.0,32,0.00,,,0.00,72,Wunderground v.1.15,2013-04-03 21:01:00,
2013-04-03 17:06:00,39.2,11.8,30.32,NW,320,9.0,18.0,32,0.00,,,0.00,98,Wunderground v.1.15,2013-04-03 21:06:00,
2013-04-03 17:12:00,39.4,11.9,30.32,NW,306,11.0,14.0,32,0.00,,,0.00,200,Wunderground v.1.15,2013-04-03 21:12:00,
2013-04-03 17:18:00,40.5,12.9,30.32,NW,306,9.0,14.0,32,0.00,,,0.00,158,Wunderground v.1.15,2013-04-03 21:18:00,
2013-04-03 17:23:00,40.7,12.4,30.32,NW,311,9.0,12.0,31,0.00,,,0.00,160,Wunderground v.1.15,2013-04-03 21:23:00,
2013-04-03 17:29:00,40.7,11.6,30.31,NW,315,10.0,15.0,30,0.00,,,0.00,181,Wunderground v.1.15,2013-04-03 21:29:00,
2013-04-03 17:34:00,40.9,11.8,30.32,NNW,342,10.0,11.0,30,0.00,,,0.00,86,Wunderground v.1.15,2013-04-03 21:34:00,
2013-04-03 17:40:00,40.0,11.8,30.32,NW,313,10.0,10.0,31,0.00,,,0.00,86,Wunderground v.1.15,2013-04-03 21:40:00,
2013-04-03 17:46:00,39.6,12.8,30.32,NW,319,12.0,18.0,33,0.00,,,0.00,46,Wunderground v.1.15,2013-04-03 21:46:00,
2013-04-03 17:52:00,40.2,12.6,30.33,NNW,344,9.0,11.0,32,0.00,,,0.00,74,Wunderground v.1.15,2013-04-03 21:52:00,
2013-04-03 17:57:00,40.2,12.6,30.33,WNW,286,8.0,11.0,32,0.00,,,0.00,37,Wunderground v.1.15,2013-04-03 21:57:00,
2013-04-03 18:03:00,39.9,11.7,30.34,WNW,291,7.0,13.0,31,0.00,,,0.00,127,Wunderground v.1.15,2013-04-03 22:03:00,
2013-04-03 18:09:00,39.7,12.2,30.34,WNW,302,7.0,13.0,32,0.00,,,0.00,86,Wunderground v.1.15,2013-04-03 22:09:00,
2013-04-03 18:15:00,40.0,12.5,30.35,NW,307,6.0,12.0,32,0.00,,,0.00,88,Wunderground v.1.15,2013-04-03 22:15:00,
2013-04-03 18:21:00,40.1,12.6,30.35,NW,325,7.0,7.0,32,0.00,,,0.00,30,Wunderground v.1.15,2013-04-03 22:21:00,
2013-04-03 18:27:00,39.2,11.8,30.35,NW,322,8.0,13.0,32,0.00,,,0.00,30,Wunderground v.1.15,2013-04-03 22:27:00,
2013-04-03 18:33:00,38.7,12.0,30.36,NNW,346,10.0,10.0,33,0.00,,,0.00,30,Wunderground v.1.15,2013-04-03 22:33:00,
2013-04-03 18:39:00,38.5,11.8,30.35,NW,304,9.0,11.0,33,0.00,,,0.00,32,Wunderground v.1.15,2013-04-03 22:39:00,
2013-04-03 18:44:00,38.6,11.9,30.36,NW,304,8.0,10.0,33,0.00,,,0.00,39,Wunderground v.1.15,2013-04-03 22:44:00,
2013-04-03 18:50:00,38.7,11.3,30.36,NW,314,8.0,8.0,32,0.00,,,0.00,26,Wunderground v.1.15,2013-04-03 22:50:00,
2013-04-03 18:56:00,38.6,11.2,30.36,NNW,334,8.0,11.0,32,0.00,,,0.00,28,Wunderground v.1.15,2013-04-03 22:56:00,
2013-04-03 19:02:00,38.5,10.4,30.36,NW,306,8.0,11.0,31,0.00,,,0.00,30,Wunderground v.1.15,2013-04-03 23:02:00,
2013-04-03 19:07:00,38.4,11.8,30.37,WNW,302,8.0,12.0,33,0.00,,,0.00,21,Wunderground v.1.15,2013-04-03 23:07:00,
2013-04-03 19:13:00,38.4,11.1,30.37,NW,318,9.0,9.0,32,0.00,,,0.00,19,Wunderground v.1.15,2013-04-03 23:13:00,
2013-04-03 19:18:00,38.3,11.0,30.37,NNW,342,8.0,11.0,32,0.00,,,0.00,14,Wunderground v.1.15,2013-04-03 23:18:00,
2013-04-03 19:23:00,38.1,10.8,30.37,WNW,302,8.0,12.0,32,0.00,,,0.00,11,Wunderground v.1.15,2013-04-03 23:23:00,
2013-04-03 19:29:00,37.8,11.2,30.38,NNW,331,8.0,12.0,33,0.00,,,0.00,7,Wunderground v.1.15,2013-04-03 23:29:00,
2013-04-03 19:34:00,37.6,11.0,30.38,NW,322,8.0,9.0,33,0.00,,,0.00,0,Wunderground v.1.15,2013-04-03 23:34:00,
2013-04-03 19:39:00,37.5,11.6,30.38,NW,318,8.0,10.0,34,0.00,,,0.00,0,Wunderground v.1.15,2013-04-03 23:39:00,
2013-04-03 19:44:00,37.3,11.5,30.39,WNW,298,7.0,9.0,34,0.00,,,0.00,0,Wunderground v.1.15,2013-04-03 23:44:00,
2013-04-03 19:50:00,37.1,11.3,30.39,NW,309,7.0,7.0,34,0.00,,,0.00,0,Wunderground v.1.15,2013-04-03 23:50:00,
2013-04-03 19:55:00,37.1,11.3,30.40,NW,321,7.0,9.0,34,0.00,,,0.00,0,Wunderground v.1.15,2013-04-03 23:55:00,
2013-04-03 20:01:00,36.8,11.0,30.39,NW,313,6.0,6.0,34,0.00,,,0.00,0,Wunderground v.1.15,2013-04-04 00:01:00,
2013-04-03 20:07:00,36.6,11.5,30.40,NW,306,4.0,6.0,35,0.00,,,0.00,0,Wunderground v.1.15,2013-04-04 00:07:00,
2013-04-03 20:12:00,36.4,11.3,30.40,West,263,4.0,6.0,35,0.00,,,0.00,0,Wunderground v.1.15,2013-04-04 00:12:00,
2013-04-03 20:18:00,36.3,11.2,30.40,NW,309,5.0,7.0,35,0.00,,,0.00,0,Wunderground v.1.15,2013-04-04 00:18:00,
2013-04-03 20:24:00,36.1,10.4,30.40,NNW,329,5.0,7.0,34,0.00,,,0.00,0,Wunderground v.1.15,2013-04-04 00:24:00,
2013-04-03 20:29:00,36.1,10.4,30.41,WNW,284,5.0,6.0,34,0.00,,,0.00,0,Wunderground v.1.15,2013-04-04 00:29:00,
2013-04-03 20:35:00,36.1,10.4,30.41,WNW,298,6.0,8.0,34,0.00,,,0.00,0,Wunderground v.1.15,2013-04-04 00:35:00,
2013-04-03 20:40:00,36.0,10.3,30.41,NW,319,7.0,7.0,34,0.00,,,0.00,0,Wunderground v.1.15,2013-04-04 00:40:00,
2013-04-03 20:46:00,35.9,10.2,30.41,WNW,297,7.0,9.0,34,0.00,,,0.00,0,Wunderground v.1.15,2013-04-04 00:46:00,
2013-04-03 20:52:00,35.7,10.0,30.42,NNW,331,6.0,6.0,34,0.00,,,0.00,0,Wunderground v.1.15,2013-04-04 00:52:00,
2013-04-03 20:57:00,35.6,9.9,30.42,NNW,328,6.0,7.0,34,0.00,,,0.00,0,Wunderground v.1.15,2013-04-04 00:57:00,
2013-04-03 21:02:00,35.5,10.5,30.42,NW,319,6.0,6.0,35,0.00,,,0.00,0,Wunderground v.1.15,2013-04-04 01:02:00,
2013-04-03 21:07:00,35.3,10.3,30.41,NW,309,4.0,6.0,35,0.00,,,0.00,0,Wunderground v.1.15,2013-04-04 01:07:00,
2013-04-03 21:13:00,35.2,10.2,30.41,NNW,328,4.0,5.0,35,0.00,,,0.00,0,Wunderground v.1.15,2013-04-04 01:13:00,
2013-04-03 21:19:00,35.0,10.1,30.42,NW,309,4.0,6.0,35,0.00,,,0.00,0,Wunderground v.1.15,2013-04-04 01:19:00,
2013-04-03 21:24:00,34.9,10.6,30.42,West,271,3.0,6.0,36,0.00,,,0.00,0,Wunderground v.1.15,2013-04-04 01:24:00,
2013-04-03 21:29:00,34.8,10.5,30.42,NW,314,4.0,6.0,36,0.00,,,0.00,0,Wunderground v.1.15,2013-04-04 01:29:00,
2013-04-03 21:34:00,34.7,11.0,30.43,NW,316,5.0,7.0,37,0.00,,,0.00,0,Wunderground v.1.15,2013-04-04 01:34:00,
2013-04-03 21:39:00,34.6,11.0,30.43,NNW,333,6.0,6.0,37,0.00,,,0.00,0,Wunderground v.1.15,2013-04-04 01:39:00,
2013-04-03 21:44:00,34.6,11.0,30.44,NW,317,6.0,8.0,37,0.00,,,0.00,0,Wunderground v.1.15,2013-04-04 01:44:00,
2013-04-03 21:51:00,34.6,11.6,30.44,NW,326,6.0,9.0,38,0.00,,,0.00,0,Wunderground v.1.15,2013-04-04 01:51:00,
2013-04-03 21:57:00,34.4,11.4,30.45,NW,323,6.0,9.0,38,0.00,,,0.00,0,Wunderground v.1.15,2013-04-04 01:57:00,
2013-04-03 22:02:00,34.3,11.3,30.45,WNW,291,6.0,7.0,38,0.00,,,0.00,0,Wunderground v.1.15,2013-04-04 02:02:00,
2013-04-03 22:07:00,34.1,11.7,30.46,NNW,342,6.0,10.0,39,0.00,,,0.00,0,Wunderground v.1.15,2013-04-04 02:07:00,
2013-04-03 22:12:00,34.0,11.6,30.46,NW,315,7.0,9.0,39,0.00,,,0.00,0,Wunderground v.1.15,2013-04-04 02:12:00,
2013-04-03 22:18:00,33.9,11.5,30.46,NW,304,7.0,9.0,39,0.00,,,0.00,0,Wunderground v.1.15,2013-04-04 02:18:00,
2013-04-03 22:23:00,33.8,12.0,30.46,NW,325,6.0,8.0,40,0.00,,,0.00,0,Wunderground v.1.15,2013-04-04 02:23:00,
2013-04-03 22:29:00,33.8,12.0,30.46,NNW,334,7.0,9.0,40,0.00,,,0.00,0,Wunderground v.1.15,2013-04-04 02:29:00,
2013-04-03 22:34:00,33.7,11.9,30.46,NNW,331,7.0,9.0,40,0.00,,,0.00,0,Wunderground v.1.15,2013-04-04 02:34:00,
2013-04-03 22:39:00,33.7,12.5,30.46,NW,321,6.0,9.0,41,0.00,,,0.00,0,Wunderground v.1.15,2013-04-04 02:39:00,
2013-04-03 22:44:00,33.5,12.8,30.46,WNW,303,6.0,9.0,42,0.00,,,0.00,0,Wunderground v.1.15,2013-04-04 02:44:00,
2013-04-03 22:50:00,33.5,12.8,30.46,WNW,284,6.0,8.0,42,0.00,,,0.00,0,Wunderground v.1.15,2013-04-04 02:50:00,
2013-04-03 22:56:00,33.4,12.7,30.46,NNW,333,6.0,8.0,42,0.00,,,0.00,0,Wunderground v.1.15,2013-04-04 02:56:00,
2013-04-03 23:01:00,33.3,13.2,30.46,WNW,295,6.0,6.0,43,0.00,,,0.00,0,Wunderground v.1.15,2013-04-04 03:01:00,
2013-04-03 23:07:00,33.1,13.0,30.46,NNW,330,5.0,6.0,43,0.00,,,0.00,0,Wunderground v.1.15,2013-04-04 03:07:00,
2013-04-03 23:12:00,33.1,13.0,30.46,NW,312,5.0,10.0,43,0.00,,,0.00,0,Wunderground v.1.15,2013-04-04 03:12:00,
2013-04-03 23:17:00,32.8,13.2,30.45,WNW,291,6.0,10.0,44,0.00,,,0.00,0,Wunderground v.1.15,2013-04-04 03:17:00,
2013-04-03 23:23:00,32.7,13.2,30.45,NNW,346,7.0,9.0,44,0.00,,,0.00,0,Wunderground v.1.15,2013-04-04 03:23:00,
2013-04-03 23:28:00,32.6,13.6,30.44,WNW,295,8.0,9.0,45,0.00,,,0.00,0,Wunderground v.1.15,2013-04-04 03:28:00,
2013-04-03 23:34:00,32.4,13.4,30.44,West,274,7.0,8.0,45,0.00,,,0.00,0,Wunderground v.1.15,2013-04-04 03:34:00,
2013-04-03 23:40:00,32.3,13.8,30.43,NW,325,5.0,7.0,46,0.00,,,0.00,0,Wunderground v.1.15,2013-04-04 03:40:00,
2013-04-03 23:45:00,32.2,13.7,30.44,NW,312,5.0,7.0,46,0.00,,,0.00,0,Wunderground v.1.15,2013-04-04 03:45:00,
2013-04-03 23:50:00,32.1,14.1,30.43,West,265,5.0,5.0,47,0.00,,,0.00,0,Wunderground v.1.15,2013-04-04 03:50:00,
2013-04-03 23:55:00,32.0,14.0,30.43,WNW,302,3.0,5.0,47,0.00,,,0.00,0,Wunderground v.1.15,2013-04-04 03:55:00,